Location: Del Oro Observatory
(38.3044°N, 104.8119°W)
Time: 19:54:45
(UTC-06:00)

Cosmos 1602 Rocket - Visible Passes

Search period start: 28 May 2016 00:00
Search period end: 07 June 2016 00:00
Orbit: 604 x 633 km, 82.5° (Epoch: 28 May)

Date Brightness Start Highest point End Pass type
(mag) Time Alt. Az. Time Alt. Az. Time Alt. Az.
28 May 5.1 21:53:34 10° SW 21:57:42 35° WNW 22:01:48 10° N visible
29 May 6.2 22:11:57 10° WSW 22:15:12 20° WNW 22:18:27 10° NNW visible
30 May 3.6 20:50:06 10° S 20:54:31 64° E 20:58:57 10° NNE visible
30 May 6.8 22:31:59 10° W 22:32:49 10° WNW 22:33:39 10° WNW visible
31 May 4.1 21:07:24 10° SSW 21:11:51 65° W 21:16:18 10° N visible
01 Jun 5.4 21:25:13 10° SW 21:29:15 34° WNW 21:33:20 10° NNW visible
02 Jun 6.4 21:43:39 10° WSW 21:46:47 18° WNW 21:49:55 10° NNW visible
05 Jun 5.6 20:56:51 10° SW 21:00:50 32° WNW 21:04:50 10° NNW visible
06 Jun 6.5 21:15:22 10° WSW 21:18:22 17° WNW 21:21:21 10° NNW visible
